Probability
0 0 0 0 0 0 0 0 0 0 0 0 0 0 0 0 0 0 0 0 0 0 0 0 0 0 0 0 0 0 0 0 0 0 0 0 0 0
0 0 0 0 0 0 0 0 0 0 0 0 0 0 0 0 0 0 0 0 0 0 0 0 0 0 0 0 0 0 0 0 0 0 0 0 0 0
0 0 0 0 0 0 0 0 0 0 0 0 0 0 0 0 0 0 0 0 0 0 0 0 0 0 0 0 0 0 0 0 0 0 0 0 0 0
0 0 0 0 0 0 0 0 0 0 0 0 0 0 0 0 0 0 0 0 0 0 0 0 0 0 0 0 0 0 0 0 0 0 0 0 0 0
0 0 0 0 0 0 0 0 0 0 0 0 0 0 0 0 0 0 0 0 0 0 0 0 0 0 0 0 0 0 0 0 0 0 0 0 0 0
0 0 0 0 0 0 0 0 0 0 0 0 0 0 0 0 0 0 0 0 0 0 0 0 0 0 0 0 0 0 0 0 0 0 0 0 0 0
0 0 0 0 0 0 0 0 0 0 0 0 0 0 0 0 0 0 0 0 0 0 0 0 0 0 0 0 0 0 0 0 0 0 0 0 0 0
0 0 0 0 0 0 0 0 0 0 0 0 0 0 0 0 0 0 0 0 0 0 0 0 0 0 0 0 0 0 0 0 0 0 0 0 0 0
0 0 0 0 0 0 0 0 0 0 0 0 0 0 0 0 0 0 0 0 0 0 0 0 0 0 0 0 0 0 0 0 0 0 0 0 0 0
0 0 0 0 0 0 0 0 0 0 0 0 0 0 0 0 0 0 0 0 0 0 0 0 0 0 0 0 0 0 0 0 0 0 0 0 0 0
0 0 0 0 0 0 0 0 0 0 0 0 0 0 0 0 0 0 0 0 0 0 0 0 0 0 0 0 0 0 0 0 0 0 0 0 0 0
0 0 0 0 0 0 0 0 0 0 0 0 0 0 0 0 0 0 0 0 0 0 0 0 0 0 0 0 0 0 0 0 0 0 0 0 0 0
0 0 0 0 0 0 0 0 0 0 0 0 0 0 0 0 0 0 0 0 0 0 0 0 0 0 0 0 0 0 0 0 0 0 0 0 0 0
0 0 0 0 0 0 0 0 0 0 0 0 0 0 0 0 0 0 0 0 0 0 0 0 0 0 0 0 0 0 0 0 0 0 0 0 0 0
0 0 0 0 0 0 0 0 0 0 0 0 0 0 0 0 0 0 0 0 0 0 0 0 0 0 0 0 0 0 0 0 0 0 0 0 0 0
0 0 0 0 0 0 0 0 0 0 0 0 0 0 0 0 0 0 0 0 0 0 0 0 0 0 0 0 0 0 0 0 0 0 0 0 0 0
0 0 0 0 0 0 0 0 0 0 0 0 0 0 0 0 0 0 0 0 0 0 0 0 0 0 0 0 0 0 0 0 0 0 0 0 0 0
0 0 0 0 0 0 0 0 0 0 0 0 0 0 0 0 0 0 0 0 0 0 0 0 0 0 0 0 0 0 0 0 0 0 0 0 0 0
0 0 0 0 0 0 0 0 0 0 0 0 0 0 0 0 0 0 0 0 0 0 0 0 0 0 0 0 0 0 0 0 0 0 0 0 0 0
0 0 0 0 0 0 0 0 0 0 0 0 0 0 0 0 0 0 0 0 0 0 0 0 0 0 0 0 0 0 0 0 0 0 0 0 0 0
0 0 0 0 0 0 0 0 0 0 0 0 0 0 0 0 0 0 0 0 0 0 0 0 0 0 0 0 0 0 0 0 0 0 0 0 0 0
0 0 0 0 0 0 0 0 0 0 0 0 0 0 0 0 0 0 0 0 0 0 0 0 0 0 0 0 0 0 0 0 0 0 0 0 0 0
0 0 0 0 0 0 0 0 0 0 0 0 0 0 0 0 0 0 0 0 0 0 0 0 0 0 0 0 0 0 0 0 0 0 0 0 0 0
Wind_Speed
6 5 4 3 3 3 3 3 4 2 3 3 3 2 1 1 3 2 3 11 15 15 16 17 18 19 20 21 22 23 24 25 26 25 25 25 25 26
7 8 6 4 4 4 3 2 2 2 2 2 2 1 2 3 8 8 9 14 13 17 18 19 19 20 22 23 24 24 25 26 27 27 28 27 27 27
10 9 8 8 6 5 4 3 2 2 2 3 4 5 6 6 8 8 10 9 10 17 20 21 21 22 23 23 24 25 26 27 28 28 29 29 29 28
14 12 11 9 8 7 6 5 4 4 2 1 3 3 4 6 9 10 9 9 9 15 19 22 22 22 22 24 25 26 27 28 29 30 30 30 31 31
14 14 13 13 11 9 8 7 6 5 4 3 2 3 4 5 7 9 9 8 7 10 15 15 16 18 21 25 26 27 28 29 29 29 30 30 30 30
13 14 14 15 14 12 9 8 7 7 6 4 3 4 4 5 5 7 8 7 6 7 9 8 11 15 19 23 24 26 27 28 30 30 30 31 31 32
14 13 13 15 18 16 12 10 9 7 5 4 3 2 2 3 4 7 10 9 7 4 5 5 7 8 11 15 17 22 26 28 30 30 31 31 32 33
16 14 13 15 18 21 20 17 15 11 7 5 4 3 2 3 5 6 8 10 8 5 9 11 10 10 10 10 18 25 30 32 33 33 33 34 35 34
16 15 12 12 14 14 18 19 18 19 16 12 6 4 1 2 5 6 6 9 8 9 10 11 10 11 10 11 23 29 32 35 36 37 37 37 37 35
17 17 16 16 16 17 15 13 10 9 8 6 4 3 3 3 4 4 6 7 8 7 7 11 10 11 10 11 24 32 33 36 38 39 39 38 36 34
15 15 15 15 22 24 15 12 10 8 9 11 10 8 6 7 8 5 4 5 7 6 6 7 9 11 11 10 13 25 31 35 36 38 37 36 35 31
12 14 18 19 25 27 17 14 12 10 8 6 3 0 1 3 8 4 1 2 5 6 1 4 8 10 10 5 7 11 15 23 31 35 36 36 35 21
11 12 14 23 26 27 20 12 12 11 9 8 6 4 3 2 2 3 4 4 7 10 8 8 8 9 11 14 13 11 11 13 14 15 20 27 32 27
12 11 14 25 25 25 19 18 19 12 7 6 4 3 3 2 3 4 6 8 11 14 12 10 10 11 13 16 17 14 11 11 11 9 7 13 21 28
10 15 21 26 24 20 21 20 12 8 6 5 4 4 3 2 4 5 7 10 12 13 12 11 11 12 12 14 15 17 16 14 10 9 8 8 10 12
12 15 18 18 14 9 8 9 6 6 6 4 4 3 1 2 4 5 7 8 10 8 10 12 13 14 14 16 17 18 16 16 12 11 11 11 12 13
14 11 12 10 9 7 5 5 5 5 5 4 3 2 0 2 4 6 7 8 8 10 10 8 11 13 15 16 20 18 18 17 15 15 16 16 14 14
16 10 11 12 11 10 9 8 7 7 6 5 4 3 1 2 5 6 7 8 9 9 10 10 10 12 13 16 19 18 17 18 17 15 17 20 18 15
14 11 10 10 10 10 10 9 8 8 7 5 4 3 1 2 6 7 8 8 9 10 10 11 10 11 15 20 17 16 20 19 18 17 16 19 22 18
12 12 10 9 9 9 9 8 8 8 7 6 5 3 2 3 5 7 8 9 10 12 12 10 10 11 14 20 24 20 23 23 20 20 18 19 24 29
14 13 11 10 9 8 7 7 7 6 5 5 4 3 3 3 5 8 9 11 12 13 14 13 13 16 15 18 21 20 19 25 30 26 24 23 23 22
11 10 11 10 9 8 7 7 5 5 5 4 4 3 3 5 7 8 8 9 10 12 15 15 15 14 13 17 21 25 25 22 25 33 36 37 31 31
10 9 9 11 9 8 7 6 5 5 5 4 3 3 5 5 6 7 8 10 11 12 14 16 15 15 14 17 21 22 27 25 22 21 22 31 40 45
Wind_Direction
171 163 154 159 148 136 132 144 144 195 254 226 200 166 140 123 350 341 309 315 325 327 328 328 327 326 325 323 319 315 310 306 300 297 294 293 293 293
169 166 162 152 146 139 144 132 117 141 247 306 307 28 22 3 344 335 315 317 313 316 318 319 321 323 324 322 318 313 310 305 302 300 297 294 292 290
171 169 167 153 148 147 142 146 150 147 211 312 331 349 355 351 330 314 304 297 297 305 308 310 313 320 319 317 313 311 307 305 302 299 295 292 290 288
175 170 167 155 151 157 158 162 161 162 155 256 318 329 311 315 301 287 273 260 255 269 287 299 308 311 313 311 310 308 305 301 298 296 291 286 284 284
179 173 168 161 167 172 166 160 157 162 164 183 237 282 282 286 286 278 267 261 252 270 279 285 290 296 300 302 305 304 300 297 294 291 289 285 280 278
179 176 172 174 171 167 164 164 159 164 162 187 220 249 261 266 272 296 308 313 304 283 281 286 294 293 291 291 294 292 290 290 290 288 285 281 277 274
177 178 178 173 170 170 170 168 163 159 156 164 200 229 270 317 334 333 329 328 316 299 309 317 303 287 279 283 283 283 282 281 280 279 279 277 273 271
175 174 174 172 179 181 181 180 175 166 153 159 182 209 289 340 335 341 331 333 342 3 335 319 307 290 282 279 281 281 282 281 280 279 277 275 273 272
172 169 167 169 171 175 183 185 188 188 179 172 179 185 167 288 310 317 323 321 317 322 318 300 293 280 283 285 289 288 285 283 281 279 277 275 275 274
174 176 174 169 174 174 175 182 186 192 188 177 161 175 199 252 252 298 346 330 311 305 300 291 299 286 285 279 286 287 285 282 279 275 272 270 272 273
170 171 170 167 179 179 169 170 177 187 198 204 205 220 242 305 325 345 347 334 314 301 289 283 300 299 290 279 276 285 290 291 290 288 282 277 274 272
167 170 171 172 181 183 173 168 173 181 180 170 166 351 11 322 310 307 237 247 285 293 338 329 305 316 306 278 290 297 296 293 291 290 287 284 280 273
172 167 174 179 184 186 179 173 175 171 175 151 144 165 189 210 264 280 260 238 253 257 281 300 296 297 283 295 295 294 300 296 291 283 281 281 279 275
178 167 166 177 186 189 185 186 185 159 140 133 138 175 182 192 238 259 273 266 259 266 280 284 279 281 284 287 292 300 302 303 304 302 294 285 282 276
169 162 164 175 182 188 189 187 170 143 137 134 172 189 176 240 279 287 282 275 268 269 275 272 271 276 274 279 282 293 302 303 301 299 291 277 276 273
161 154 161 171 169 153 174 169 151 146 139 154 178 173 164 275 286 285 278 279 279 277 279 276 271 273 272 274 282 289 290 289 290 287 281 270 265 266
150 151 155 151 144 136 136 138 139 140 143 155 160 149 251 295 287 280 280 282 283 297 299 288 276 272 273 281 284 282 286 285 283 282 280 273 264 261
156 165 164 162 159 153 160 161 163 167 158 156 162 168 234 287 286 281 278 275 280 287 292 294 295 295 286 270 261 276 279 283 285 279 275 277 274 264
158 162 167 161 159 161 162 163 164 160 156 160 170 172 199 273 283 282 280 279 282 284 284 287 292 292 295 295 288 278 289 291 288 281 274 270 274 272
162 160 163 165 162 161 160 159 157 156 156 159 168 171 184 232 267 273 275 281 287 291 288 286 284 283 286 292 297 291 285 287 286 284 280 273 271 270
155 153 156 158 155 156 150 147 149 149 151 157 168 178 192 215 250 262 273 280 285 286 291 293 289 289 286 289 287 288 289 285 286 287 285 280 277 271
152 146 142 143 143 145 142 145 147 151 159 172 181 186 207 226 248 264 276 284 280 283 292 294 296 296 293 291 291 295 297 295 289 285 281 277 273 269
139 137 134 132 134 136 142 149 156 164 168 175 176 200 217 233 252 264 275 275 277 292 300 300 300 299 294 293 294 295 298 301 301 298 286 283 279 272